Location: Chippewa Lake
(41.0698°N, 81.9010°W)
Time: 02:02:05
(UTC+00:00)

Cosmos 1726 - Pass Details

Date: 09 May 2021
Orbit: 478 x 498 km, 82.5° (Epoch: 24 June)

Event Time Altitude Azimuth Distance (km) Brightness Sun altitude
Rises 07:07:08 0° 355° (N) 2,588 6.6 -26.8°
Reaches altitude 10° 07:09:17 10° 358° (N) 1,698 5.6 -26.6°
Enters shadow 07:11:44 38° 12° (NNE) 765 3.4 -26.4°
